{"data":{"norad_id":47267,"epoch":"2026-05-25T02:48:39.054816Z","epoch_age_seconds":64830,"freshness":"FRESH","line1":"1 47267U 20100K   26145.11711869  .00000394  00000+0  10596-2 0  9999","line2":"2 47267  87.8960 355.2442 0002006  79.0660 281.0694 13.12441099261617","mean_motion":13.12441099,"eccentricity":0.0002006,"inclination_deg":87.896,"raan_deg":355.2442,"arg_perigee_deg":79.066,"mean_anomaly_deg":281.0694,"bstar":0.0010596,"rev_number":26161,"period_min":109.71920957803,"perigee_km":1212.2076933339,"apogee_km":1215.2535506238,"semimajor_km":7591.8676219789,"source":"CELESTRAK","updated_at":"2026-05-25T13:38:22.380921Z"}}